DW7102 Weather Reports


time (UTC)temp
C
wind
direction
speed
KPH
gust
KPH
rain 1hr
cm
rain 24hr
cm
rain mn
cm
humidity
%
barometer
mb
20260507113704 5 38 0.0 1.6 0.00 0.00 0.00 82 1004.1
20260507110703 4 40 1.6 4.8 0.00 0.00 0.00 84 1004.2
20260507103704 3 291 0.0 3.2 0.00 0.00 0.00 87 1004.4
20260507103204 3 233 0.0 4.8 0.00 0.00 0.00 89 1004.4
20260507100204 3 261 0.0 4.8 0.00 0.00 0.00 92 1004.3
20260507080700 3 5 0.0 0.0 0.00 0.00 0.00 91 1004.1
20260507080201 3 5 0.0 4.8 0.00 0.00 0.00 91 1004.1
20260507073200 3 25 1.6 1.6 0.00 0.00 0.00 91 1004.0
20260507070700 3 25 0.0 1.6 0.00 0.00 0.00 91 1003.9
20260507070200 3 25 0.0 3.2 0.00 0.00 0.00 91 1004.0
20260507063701 3 25 0.0 0.0 0.00 0.00 0.00 90 1004.2
20260507063200 3 25 0.0 1.6 0.00 0.00 0.00 90 1004.1
20260507060700 4 25 0.0 4.8 0.00 0.00 0.00 89 1004.2
20260507060201 4 22 3.2 4.8 0.00 0.00 0.00 88 1004.2
20260507053700 5 120 0.0 0.0 0.00 0.00 0.00 86 1004.4
20260507053201 5 120 0.0 4.8 0.00 0.00 0.00 85 1004.5
20260507050701 5 147 1.6 3.2 0.00 0.00 0.00 85 1004.8
20260507050201 6 94 0.0 4.8 0.00 0.00 0.00 84 1004.8
20260507043700 7 220 0.0 0.0 0.00 0.00 0.00 79 1005.2
20260507043201 7 220 1.6 11.3 0.00 0.00 0.00 78 1005.2
20260507040701 6 239 1.6 4.8 0.00 0.00 0.00 86 1005.5
20260507033701 6 33 0.0 1.6 0.00 0.00 0.00 85 1005.5
20260507033201 6 39 0.0 3.2 0.00 0.03 0.00 85 1005.4
20260507030201 6 5 0.0 0.0 0.00 0.08 0.00 84 1005.1
20260507023702 6 5 1.6 1.6 0.00 0.18 0.00 83 1005.2
20260507023201 6 5 1.6 4.8 0.00 0.18 0.00 83 1005.2
20260507020701 7 104 0.0 3.2 0.00 0.20 0.00 80 1005.1
20260507013702 8 55 1.6 4.8 0.00 0.30 0.00 77 1005.1
20260507013201 8 90 3.2 9.7 0.00 0.30 0.00 78 1005.1
20260507010201 8 118 3.2 4.8 0.00 0.53 0.00 76 1005.2
20260507003202 8 115 4.8 11.3 0.00 0.56 0.00 76 1005.1
20260507000702 8 93 4.8 9.7 0.00 0.56 0.00 73 1005.1
20260506233702 11 146 1.6 4.8 0.00 0.56 0.00 62 1004.8
20260506233202 11 145 6.4 19.3 0.00 0.56 0.00 60 1004.7
20260506230702 12 145 8.0 14.5 0.00 0.56 0.00 55 1004.7
20260506230204 12 122 4.8 14.5 0.00 0.56 0.00 53 1004.7
20260506223202 13 105 4.8 9.7 0.00 0.56 0.00 50 1004.7
20260506213702 13 51 4.8 12.9 0.00 0.56 0.00 52 1004.8
20260506213202 13 116 8.0 14.5 0.00 0.56 0.00 51 1004.8
20260506203203 13 38 3.2 14.5 0.00 0.56 0.00 53 1005.1
20260506200702 12 82 6.4 12.9 0.00 0.76 0.00 59 1005.3
20260506193702 12 90 8.0 19.3 0.00 1.09 0.00 59 1005.3
20260506193202 12 93 8.0 16.1 0.00 1.12 0.00 57 1005.3
20260506190702 12 114 8.0 12.9 0.00 1.22 0.00 58 1005.4
20260506183702 12 58 8.0 14.5 0.00 1.22 0.00 61 1005.6
20260506180702 11 78 6.4 12.9 0.00 1.22 0.00 62 1005.9
20260506173202 11 76 9.7 16.1 0.00 1.24 0.00 63 1006.3
20260506170702 11 91 4.8 14.5 0.00 1.27 0.00 67 1006.7
20260506163703 10 65 9.7 14.5 0.00 1.27 0.00 73 1007.0
20260506160702 10 78 6.4 11.3 0.00 1.27 0.00 74 1007.6
20260506160203 10 60 4.8 12.9 0.00 1.27 0.00 75 1007.6
20260506150203 10 318 1.6 4.8 0.00 1.27 0.00 72 1007.8
20260506143703 10 325 1.6 3.2 0.00 1.27 0.00 83 1007.6
20260506140702 9 302 0.0 1.6 0.00 1.27 0.00 86 1007.6
20260506140203 8 302 1.6 3.2 0.00 1.27 0.00 88 1007.8
20260506133703 8 302 0.0 1.6 0.00 1.27 0.00 89 1007.8
20260506133203 8 302 0.0 4.8 0.00 1.27 0.00 90 1007.8
20260506130703 8 294 1.6 3.2 0.00 1.27 0.00 95 1007.7